Preview of NWS' New Version of Forecast
This preview is not operational and should not be used for support decisions.
Latest weather observations around

Montgomery, Dannelly Field (KMGM)

Using International System of Units (Switch to English Units)
Date/ Time (CST) Wind (kph) Vis. (km) Weather Sky Cond. Temp (°C) Rel. Humidity Wind Chill (°C) Heat Index (°C) Pressure Precip. (cm)
Air Dwpt 6 hour Altimeter (hPa) Sea level (hPa) 1 hr 3 hr 6 hr
Max Min
Feb 22 05:53 E 9 0.4 Fog VV002 17 17     97%     1028.1 1028      
Feb 22 04:53 E 8 0.4 Fog VV002 16 16     100%     1027.8 1027.5      
Feb 22 04:37 E 8 0.4 Fog VV002 16 16     97%     1027.8        
Feb 22 04:18 E 5 0.4 Fog VV003 16 16     97%     1027.8        
Feb 22 03:53 E 5 0.4 Fog VV007 17 16     96%     1027.4 1027.3      
Feb 22 03:32 Calm 0.4 Fog VV008 17 17     97%     1027.4        
Feb 22 03:11 Calm 0.4 Fog VV011 17 17     100%     1027.4        
Feb 22 02:53 ESE 5 0.8 Fog VV011 17 17     100%     1027.1 1026.8      
Feb 22 02:41 ESE 5 1.21 Fog/Mist VV011 17 17     97%     1027.1        
Feb 22 02:35 ESE 5 2.82 Fog/Mist CLR 18 17     96%     1027.1        
Feb 22 01:53 SSW 5 16.09 Clear CLR 19 18     93%     1027.1 1026.9      
Feb 22 00:53 S 11 16.09 Clear CLR 20 19     93%     1027.4 1027.2      
Feb 21 23:53 S 9 16.09 Clear CLR 21 19     90%     1027.8 1027.4      
Feb 21 22:53 S 15 16.09 Clear CLR 22 19     84%   22 1027.4 1027      
Feb 21 21:53 S 15 16.09 Clear CLR 22 18     81%   22 1027.1 1026.8      
Feb 21 20:53 S 13 16.09 Clear CLR 23 18     73%   23 1026.8 1026.3      
Feb 21 19:53 SSE 15 16.09 Clear CLR 23 17     69%   23 1026.1 1025.8      
Feb 21 18:53 SSE 11 16.09 Clear CLR 24 17     64%   24 1025.7 1025.5      
Feb 21 17:53 SSE 15 16.09 Clear CLR 26 16     56%   26 1025.1 1024.7      
Feb 21 16:53 SSE 15 16.09 Mostly Cloudy BKN049 BKN085 28 17     53%   28 1024.7 1024.5      
Feb 21 15:53 SE 24 16.09 Partly Cloudy FEW075 SCT090 28 17     51%   28 1024.4 1024      
Feb 21 14:53 SSE 18 16.09 Cloudy SCT055 BKN075 OVC090 28 16     48%   29 1024.7 1024.4      
Feb 21 13:53 SSE 22 16.09 Mostly Cloudy FEW046 SCT055 BKN080 29 17     49%   29 1025.1 1024.6      
Feb 21 12:53 SE 26 16.09 Mostly Cloudy SCT041 BKN070 28 18     55%   29 1025.7 1025.4      
Feb 21 11:53 SSE 22 16.09 Partly Cloudy SCT034 28 19     58%   29 1027.1 1026.6      
Feb 21 11:04 S 18 16.09 Mostly Cloudy BKN030 BKN036 26 19     67%   26 1027.8        
Feb 21 10:53 SSE 24 16.09 Mostly Cloudy BKN027 BKN033 26 19     65%   26 1027.8 1027.6      
Feb 21 10:38 S 17 16.09 Mostly Cloudy SCT027 BKN034 26 19     67%   26 1027.8        
Feb 21 10:18 SSE 22 16.09 Mostly Cloudy BKN026 BKN031 25 19     71%   25 1028.1        
Feb 21 09:53 S 17 16.09 Partly Cloudy SCT024 25 19     71%   25 1028.1 1027.8      
Feb 21 08:53 SE 13 16.09 Mostly Clear FEW042 24 20     79%   24 1028.1 1027.7      
Feb 21 07:53 SE 13 14.48 Mostly Clear FEW042 21 19     90%     1027.4 1027.1      
Feb 21 06:53 ESE 11 9.66 Fog/Mist CLR 19 19     97%     1026.8 1026.6      
Feb 21 05:53 SE 9 12.87 Clear CLR 18 18     100%     1026.8 1026.5      
Feb 21 04:53 E 11 12.87 Mostly Cloudy FEW037 SCT050 BKN090 19 18     96%     1026.8 1026.3      
Feb 21 03:53 E 11 8.05 Fog/Mist FEW055 BKN085 19 19     100%     1026.4 1026.1      
Feb 21 03:30 E 8 4.83 Fog/Mist FEW040 SCT050 BKN085 19 18     96%     1026.4        
Feb 21 03:27 E 8 2.82 Fog/Mist FEW040 SCT070 BKN085 18 18     97%     1026.4        
Feb 21 03:18 E 5 1.21 Fog/Mist FEW008 SCT070 BKN085 19 18     96%     1026.4        
Feb 21 03:13 Calm 2.41 Fog/Mist FEW008 SCT048 BKN070 19 18     96%     1026.4        
Feb 21 03:04 E 5 4.02 Fog/Mist SCT043 SCT050 BKN070 19 18     96%     1026.4        
Feb 21 02:55 E 5 2.01 Fog/Mist BKN043 BKN050 OVC070 19 18     96%     1026.4        
Feb 21 02:53 ESE 5 3.22 Fog/Mist BKN043 BKN050 OVC070 19 18     96%     1026.4 1026      
Feb 21 01:53 SE 5 12.87 Partly Cloudy SCT075 19 19     100%     1026.4 1025.9      
Feb 21 00:53 ESE 5 12.87 Mostly Cloudy BKN060 19 18     96%     1026.4 1026      
Feb 20 23:53 ESE 8 16.09 Clear CLR 19 19     97%     1026.1 1025.9      
Feb 20 22:53 SSE 11 16.09 Mostly Clear FEW030 21 19     90%     1026.1 1025.6      
Feb 20 21:53 SSE 11 14.48 Clear CLR 21 19     87%     1025.7 1025.3      
Feb 20 20:53 SSE 9 16.09 Clear CLR 21 19     87%     1025.1 1024.9      
Feb 20 19:53 SSE 13 16.09 Clear CLR 23 19     79%   23 1024.7 1024.6      
Feb 20 18:53 SE 11 16.09 Clear CLR 22 18     79%   23 1024.4 1024.2      
Feb 20 17:53 SE 13 16.09 Clear CLR 23 18     74%   24 1024.4 1024 0   0
Feb 20 16:53 SSE 17 16.09 Partly Cloudy FEW047 SCT060 SCT090 26 19     65%   26 1023.7 1023.6 0    
Feb 20 15:53 S 18 16.09 Mostly Cloudy FEW060 SCT070 BKN085 27 18     58%   28 1023.4 1023.2      
Feb 20 14:53 SSE 18 16.09 Mostly Cloudy SCT045 BKN085 27 18     58%   28 1023.4 1023.1      
Feb 20 13:53 SSE 26 16.09 Mostly Cloudy FEW036 SCT043 BKN080 27 18     56%   28 1023.7 1023.6      
Feb 20 12:53 SSE 21 16.09 Cloudy BKN037 BKN045 OVC075 26 18     60%   26 1024.4 1024.3      
Feb 20 11:53 SSE 22 16.09 Mostly Cloudy SCT032 BKN042 BKN060 26 18     64%   26 1025.4 1025.2      
Feb 20 11:31 SSE 26 16.09 Mostly Cloudy BKN030 BKN037 BKN070 26 18     62%   26 1025.7        
Feb 20 11:12 SE 17 16.09 Cloudy BKN028 OVC070 26 18     64%   26 1025.7        
Feb 20 10:53 SSE 18 16.09 Mostly Cloudy SCT028 BKN070 25 18     66%   25 1026.1 1025.8      
Feb 20 09:53 SE 21 16.09 Mostly Cloudy FEW020 BKN070 24 18     71%   24 1026.4 1026.1      
Feb 20 08:53 SE 18 16.09 Clear CLR 22 18     79%   22 1026.4 1025.9      
Feb 20 07:53 ESE 9 16.09 Clear CLR 18 16     90%     1025.7 1025.6      
Feb 20 06:53 E 13 14.48 Clear CLR 16 14     93%     1025.4 1025.2      
Feb 20 05:53 E 9 12.87 Clear CLR 14 14     97%     1025.4 1025.1      
Feb 20 04:53 E 9 12.87 Cloudy OVC060 16 15     96%     1025.1 1024.9      
Feb 20 03:53 ENE 8 12.87 Clear CLR 14 14     97%     1024.7 1024.6      
Feb 20 02:53 ENE 5 16.09 Clear CLR 16 15     96%     1024.7 1024.3      
Feb 20 01:53 E 9 16.09 Clear CLR 15 14     96%     1024.4 1024.1      
Feb 20 00:53 ESE 9 16.09 Clear CLR 17 16     90%     1024.4 1024      
Feb 19 23:53 ESE 8 16.09 Clear CLR 17 16     90%     1024.4 1024      
Feb 19 22:53 SE 8 16.09 Clear CLR 19 16     81%     1024.4 1024      
Feb 19 21:53 SSE 15 16.09 Mostly Clear FEW045 21 16     71%     1024.4 1024      
Feb 19 20:53 S 13 16.09 Mostly Cloudy BKN070 22 16     66%   22 1024.1 1023.7      
Feb 19 19:53 SSE 9 16.09 Mostly Cloudy BKN075 22 16     68%   22 1023.4 1023.2      
Feb 19 18:53 SSE 8 16.09 Mostly Cloudy BKN075 23 16     64%   23 1023 1022.9      
Feb 19 17:53 SSE 9 16.09 Mostly Cloudy FEW055 BKN075 24 15     57%   24 1022.7 1022.5      
Feb 19 16:53 SSE 11 16.09 Mostly Cloudy BKN075 26 15     50%   26 1022.4 1022.1      
Feb 19 15:53 S 18 16.09 Mostly Cloudy FEW055 BKN075 27 14     45%   27 1022 1021.8      
Feb 19 14:53 S 18 16.09 Mostly Cloudy BKN070 27 13     44%   27 1022.4 1022.1      
Feb 19 13:53 SSE 21 16.09 Partly Cloudy SCT070 27 13     41%   27 1022.4 1022      
Feb 19 12:53 S 15 16.09 Clear CLR 27 14     45%   27 1023 1022.8      
Feb 19 11:53 SSE 21 16.09 Clear CLR 24 16     58%   24 1024.4 1024.3      
Feb 19 11:18 SSE 22 16.09 Partly Cloudy SCT020 23 17     66%   23 1025.4        
Feb 19 10:53 SSE 22 16.09 Mostly Cloudy BKN018 BKN025 22 17     73%   22 1025.7 1025.5      
Feb 19 10:33 SSE 18 16.09 Cloudy OVC016 21 17     78%     1026.1        
Feb 19 09:53 SE 24 16.09 Mostly Cloudy BKN014 21 17     78%     1026.1 1025.8      
Feb 19 09:44 SE 28 16.09 Mostly Cloudy BKN014 21 17     81%     1026.1        
Feb 19 09:00 SSE 18 16.09 Mostly Clear FEW044 21 17     81%     1025.7        
Feb 19 08:53 SSE 18 16.09 Mostly Cloudy BKN010 20 17     84%     1025.7 1025.4      
Feb 19 08:25 SSE 18 16.09 Mostly Cloudy BKN010 19 17     87%     1025.4        
Feb 19 07:53 SSE 9 16.09 Cloudy OVC008 18 17     96%     1025.4 1025.2      
Feb 19 07:19 S 9 12.87 Cloudy BKN004 OVC014 17 16     96%     1025.4        
Feb 19 06:53 SSE 9 9.66 Fog/Mist BKN005 BKN009 16 16     97%     1025.1 1024.9      
Feb 19 06:23 S 8 14.48 Cloudy OVC005 17 16     96%     1024.7        
Jun 12 08:37 ESE 13 16.09 Mostly Clear FEW015 27 21     69%   29 1021.3        
Jun 11 20:53 ESE 8 16.09 Clear CLR 26 22     77%   28 1019.3 1019.1      
Jun 11 16:53 SSE 15 16.09 Clear CLR 29 20     59%   31 1018.3 1018      
Jun 11 10:53 SE 11 16.09 Mostly Clear FEW028 30 20     55%   32 1020.7 1020.3      
Jun 11 10:10 ESE 11 16.09 Partly Cloudy SCT023 29 21     61%   32 1021        
Jun 11 09:53 SE 13 16.09 Mostly Cloudy BKN023 29 21     63%   31 1021 1020.6      
Jun 09 16:53 S 8 16.09 Clear CLR 31 13     35%   30 1013.2 1012.7      
Jun 09 15:53 8 16.09 Mostly Clear FEW060 30 13     36%   29 1013.6 1013.1      
Jun 08 06:53 Calm 16.09 Clear CLR 19 14     73%     1012.2 1012      
Jun 07 10:53 NNE 17 16.09 Clear CLR 27 19     62%   28 1008.1 1007.7      
Jun 06 13:58 N 15 3.22 Heavy Rain FEW027 BKN034 OVC060 24 21     84%   25 1006.8   0    
Jun 06 13:43 N 17 2.01 Heavy Rain FEW006 BKN022 OVC040 23 21     85%   24 1007.1   1    
Jun 06 12:53 SE 18 16.09 Mostly Cloudy FEW021 SCT033 BKN042 27 21     71%   28 1007.5 1007      
Jun 06 09:53 NE 15 16.09 Mostly Cloudy BKN007 26 22     77%   28 1007.8 1007.4      
Jun 06 07:53 Calm 16.09 Mostly Clear FEW004 23 21     85%   24 1008.5 1008.2      
Notice The following observation data may not be complete
Jun 05 21:03   9.66 Rain FEW006 BKN023 OVC110          %         0    
Jun 05 19:28 N 5 16.09 Mostly Cloudy SCT027 BKN065 24 20     79%   24 1008.8